Regional Weather Roundup
Issued by NWS

Home | Current Version | Previous Version | Graphics & Text | Print | Product List | Glossary On
Versions: 1 2 3 4 5 6 7 8 9 10 11 12 13 14 15 16 17 18 19 20 21 22 23 24 25 26 27 28 29 30 31 32 33 34 35 36 37 38 39 40 41 42 43 44 45 46 47 48 49 50
000
ASUS43 KIND 151859
RWRIN

WEATHER ROUNDUP FOR INDIANA
NATIONAL WEATHER SERVICE INDIANAPOLIS IN
300 PM EDT TUE APR 15 2014

NOTE: "FAIR" INDICATES FEW OR NO CLOUDS BELOW 12,000 FEET WITH NO
SIGNIFICANT WEATHER AND/OR OBSTRUCTIONS TO VISIBILITY.

* - STATION DOES NOT REPORT WEATHER SUCH AS PRECIPITATION OR FOG.

+ - STATION NOT QUALITY CONTROLLED BY THE NATIONAL WEATHER SERVICE.
    USE DATA WITH CAUTION...ESPECIALLY DEWPOINT AND RELATIVE
    HUMIDITY OBSERVATIONS.

INZ001>003-010>013-019-020-152000-
NORTHWEST INDIANA

CITY           SKY/WX    TMP DP  RH WIND       PRES   REMARKS
GARY /AIRPORT/ PTSUNNY   34  18  51 NE14G25   30.17  WCI  24
VALPARAISO     MOSUNNY   33   9  36 N10G21    30.16R WCI  25

$$

LMZ046-743>745-152000-
SOUTHERN LAKE MICHIGAN

STATION/POSITION TIME  TEMP WIND        PRES
                       AIR  DIR/SP/G
                 (UTC) (F)  (DEG/KT/KT) (MB)
MICHIGAN CITY    1800   30  330/ 15/ 19   N/A

$$

INZ004-005-014>016-021>024-152000-
NORTH CENTRAL INDIANA

CITY           SKY/WX    TMP DP  RH WIND       PRES   REMARKS
GOSHEN         PTSUNNY   34  13  41 N21G28    30.12R WCI  22
SOUTH BEND     MOSUNNY   33  10  38 NW17G29   30.14R WCI  22

$$

INZ006>009-017-018-025>027-152000-
NORTHEAST INDIANA

CITY           SKY/WX    TMP DP  RH WIND       PRES   REMARKS
ANGOLA *+      PTSUNNY   30  16  55 NW20      30.07R WCI  18
FORT WAYNE     PTSUNNY   35  17  47 NW15G24   30.10R WCI  25

$$

INZ028-029-035-036-043>045-051>053-152000-
WEST CENTRAL INDIANA

CITY           SKY/WX    TMP DP  RH WIND       PRES   REMARKS
GREENCASTLE +  CLOUDY    36  16  44 NW6G17    30.16R
LAFAYETTE      CLOUDY    37  16  42 N14G22    30.17R
TERRE HAUTE    PTSUNNY   39  20  46 NW13G23   30.17S

$$

INZ030>032-037>040-046>048-054>057-064-065-152000-
CENTRAL INDIANA

CITY           SKY/WX    TMP DP  RH WIND       PRES   REMARKS
ANDERSON       PTSUNNY   34  18  51 NW17G23   30.12  WCI  23
COLUMBUS       PTSUNNY   36  25  64 MISG      30.15R
INDIANAPOLIS   PTSUNNY   34  18  52 NW17G24   30.14R WCI  23
-EAGLE CREEK   CLOUDY    36  18  48 NW14      30.14R
KOKOMO *+      PTSUNNY   36  16  44 NW17      30.13R
MT COMFORT *+  MOSUNNY   36  23  60 NW16      30.14R
SHELBYVILLE    CLOUDY    38  21  50 NW18      30.13R

$$

INZ033-034-041-042-049-050-058-059-152000-
EAST CENTRAL INDIANA

CITY           SKY/WX    TMP DP  RH WIND       PRES   REMARKS
MUNCIE         CLOUDY    34  20  56 NW16G26   30.11R WCI  24

$$

INZ060-061-067>069-081>083-085>088-152000-
SOUTHWEST INDIANA

CITY           SKY/WX    TMP DP  RH WIND       PRES   REMARKS
EVANSVILLE     PTSUNNY   42  24  49 N13G23    30.20R
HUNTINGBURG *+ CLOUDY    43  25  49 N15G21    30.17S

$$

INZ062-063-066-070>080-084-089>092-152000-
SOUTH CENTRAL AND SOUTHEAST INDIANA

CITY           SKY/WX    TMP DP  RH WIND       PRES   REMARKS
BLOOMINGTON    PTSUNNY   38  16  40 N10G23    30.14R

$$




USA.gov is the U.S. government's official web portal to all federal, state and local government web resources and services.